Temp
12 11 10 8 8 8 8 9 9 8 9 10 13 14 15 16 17 18 17 17 17 13 14 17 18 17 15 13 15 15 15 14 12 13 13 12 11 12 12 15 16 15 13 13 12 16 18 15 18 21 17 15 16 17
11 10 8 8 8 8 8 9 9 8 9 10 13 14 15 15 16 18 18 17 18 14 15 17 17 17 18 18 13 11 14 13 11 11 11 10 13 11 11 12 14 14 13 14 14 13 14 14 15 15 14 15 15 14
10 8 9 9 10 9 9 9 8 8 9 9 12 14 15 16 16 18 17 18 18 13 14 15 16 18 19 19 18 15 12 12 11 9 9 10 14 9 11 12 15 15 12 13 14 15 15 15 16 15 14 14 13 13
9 10 10 10 10 9 9 9 9 8 9 10 12 14 15 15 16 17 16 17 17 12 13 14 18 17 17 18 19 17 14 12 10 9 8 9 12 9 11 11 11 12 13 12 13 14 15 16 15 15 14 13 13 13
9 9 9 9 8 8 9 9 9 8 9 10 13 14 14 15 16 16 17 16 17 16 13 13 15 17 16 18 17 16 14 10 9 11 10 11 8 9 8 9 10 11 12 12 13 13 13 14 13 15 14 14 13 13
9 9 9 8 9 9 8 9 9 9 10 11 13 14 15 15 15 16 12 16 17 17 13 14 13 15 16 17 16 13 11 8 7 9 8 7 7 8 10 10 11 10 10 10 12 12 12 14 13 13 16 15 13 13
9 9 8 8 8 8 9 9 9 10 10 12 13 14 15 15 15 15 13 16 16 17 13 13 13 14 16 14 11 10 10 7 8 7 8 8 8 7 8 7 12 11 12 12 13 14 15 14 13 13 14 15 16 15
9 8 8 8 8 8 8 9 10 10 12 13 14 14 14 15 15 16 16 16 16 16 12 12 13 13 15 12 12 8 9 7 7 7 7 8 6 5 7 9 10 11 12 13 13 13 13 13 14 14 14 14 14 13
9 8 9 9 9 9 9 10 11 12 13 14 14 14 15 15 15 15 16 16 16 15 12 11 12 13 11 9 8 9 7 10 6 9 8 8 7 6 9 9 9 10 12 13 12 13 13 13 13 14 14 13 13 12
9 9 9 10 10 10 11 12 12 13 13 14 14 14 12 14 15 15 15 13 12 10 10 12 10 13 12 9 10 10 7 8 7 9 7 8 7 8 8 8 9 10 10 11 13 13 13 12 12 13 13 12 12 12
9 9 9 10 11 11 12 12 12 13 14 14 12 12 14 15 15 11 13 13 12 15 10 11 11 12 11 13 11 8 9 8 10 10 10 8 8 9 10 9 8 9 10 10 12 13 12 11 11 11 11 13 12 12
8 8 9 10 11 11 12 12 13 14 14 13 13 14 14 11 11 15 13 12 13 15 11 12 12 11 10 9 11 9 11 9 12 9 11 9 9 10 11 11 10 9 10 11 12 12 12 12 12 12 11 12 12 13
8 8 9 10 11 12 12 13 13 14 14 13 13 13 11 11 11 14 15 13 13 12 11 11 13 11 10 9 9 11 13 11 9 11 9 10 10 11 10 11 11 11 11 12 12 12 13 13 12 12 12 12 12 12
8 9 10 10 11 12 12 13 13 14 13 12 13 10 12 12 12 12 13 14 14 13 11 11 10 12 9 12 10 14 12 11 12 11 13 11 11 12 11 11 12 12 11 11 12 12 12 12 12 12 12 12 12 12
9 9 10 11 11 12 12 13 13 14 13 13 12 12 12 12 12 12 13 13 13 11 11 12 11 11 11 13 11 12 13 13 12 12 11 10 10 9 11 11 11 11 10 10 11 11 12 12 12 11 11 11 11 10
9 10 10 11 11 12 12 13 13 13 12 12 12 13 12 13 13 13 14 13 11 10 11 12 12 13 15 12 13 13 14 13 13 11 11 10 10 10 10 10 10 10 10 10 11 11 12 12 11 11 11 10 10 10
10 10 10 11 11 12 12 12 12 11 12 13 12 10 12 12 13 13 14 16 11 13 14 13 15 15 12 13 13 12 13 13 12 12 11 10 10 10 10 10 11 11 10 10 11 11 10 10 10 9 8 9 8 8
10 10 10 10 10 11 11 11 11 12 13 12 11 11 11 12 13 13 12 12 13 13 13 15 14 15 15 15 14 13 12 12 12 12 11 10 9 10 11 10 12 11 10 10 10 10 9 9 8 7 7 7 7 8
9 10 10 10 10 10 10 11 10 12 13 12 10 11 11 12 11 12 13 14 14 13 12 14 17 13 13 12 13 12 12 11 12 11 11 10 10 11 12 12 11 10 10 10 9 9 9 9 9 8 8 8 7 7
10 10 11 10 10 10 10 10 11 10 11 13 11 11 12 12 13 13 13 12 12 13 14 14 14 13 12 13 12 13 12 11 11 11 10 10 10 11 11 11 10 10 9 9 9 9 9 9 10 10 9 9 9 8
10 10 10 10 10 9 9 9 10 10 11 12 12 13 14 12 13 13 14 10 12 13 13 11 12 13 11 13 13 12 11 10 11 11 11 10 10 11 11 10 10 10 9 8 8 8 9 10 10 10 9 10 10 10
10 10 10 9 9 9 9 9 9 10 11 12 12 13 13 13 13 13 11 13 13 12 12 12 11 11 11 12 11 12 12 11 12 11 12 12 9 8 8 9 8 8 8 9 9 9 10 10 10 10 10 11 10 11
9 10 9 9 10 9 9 10 11 12 13 13 13 14 13 13 13 12 14 12 12 10 11 11 11 12 11 11 11 11 11 11 9 10 11 11 11 11 11 10 11 10 8 9 11 11 11 11 11 10 10 11 11 10
9 9 9 10 9 9 10 11 11 12 13 14 14 16 16 13 13 14 15 13 11 10 10 11 11 10 10 10 10 10 11 11 11 12 12 11 9 10 11 12 12 12 13 13 11 11 11 11 11 11 10 10 10 9
9 10 8 8 10 12 12 13 13 13 14 15 16 16 15 12 14 15 14 13 11 12 11 11 10 10 11 10 9 11 12 13 12 12 13 12 12 10 9 10 11 12 12 11 10 10 11 11 11 11 10 10 10 10
8 10 9 12 12 12 13 15 15 14 14 15 15 13 13 14 15 15 14 12 12 12 12 12 11 10 9 10 10 10 13 14 14 12 13 13 12 12 10 9 9 12 12 12 12 11 11 11 11 11 10 10 10 10
10 12 11 9 11 12 13 14 14 14 15 16 15 14 14 16 16 14 11 11 12 13 13 13 12 10 10 11 13 14 14 14 14 14 15 15 14 15 15 13 11 15 15 13 13 13 13 12 12 11 11 11 11 11
12 11 12 12 11 12 14 14 15 15 15 13 14 15 16 16 15 13 12 14 14 14 14 14 13 12 12 13 15 15 14 14 13 13 14 14 14 14 14 14 15 15 15 15 14 14 14 13 12 12 12 12 12 12
10 11 11 12 13 13 13 14 15 14 13 13 14 14 15 12 12 12 14 14 15 15 14 13 13 13 14 14 14 15 15 15 14 13 13 11 11 14 15 15 15 14 14 14 14 14 14 13 13 13 13 13 12 12
10 10 11 12 13 14 14 12 14 13 12 12 12 12 12 12 14 15 15 15 15 15 15 14 14 14 13 13 13 14 14 15 15 15 11 11 13 16 16 16 15 14 14 13 13 13 13 12 12 12 12 12 12 12
10 10 12 12 14 14 14 13 12 12 12 12 12 13 13 12 14 15 15 16 16 15 14 13 13 14 14 13 13 12 12 15 16 16 15 15 15 16 15 15 15 14 14 13 13 13 13 13 12 12 12 11 12 12
11 12 13 14 13 13 13 14 13 13 12 12 12 12 13 14 15 12 15 15 14 14 15 14 14 15 17 17 17 17 18 18 17 17 17 16 15 16 15 15 14 14 14 13 13 13 13 13 12 12 12 12 12 12
12 12 12 14 14 14 13 13 13 13 12 12 12 12 14 15 15 14 16 16 16 17 16 17 17 16 17 17 16 17 18 18 18 17 17 17 17 16 15 15 14 14 14 13 13 13 13 12 12 12 12 12 12 12
Height
814 810 807 804 801 798 796 794 792 789 788 787 786 785 784 781 780 779 778 776 774 785 788 785 784 788 792 797 801 797 797 796 804 813 816 822 826 823 824 813 808 815 828 829 836 825 816 799 790 793 797 792 788 791
810 806 803 800 797 794 792 790 789 787 786 785 785 784 783 781 780 779 777 777 777 779 789 788 787 786 785 786 793 799 798 801 803 815 820 823 818 824 825 829 812 821 817 818 821 823 808 801 798 793 791 790 793 794
805 802 798 795 792 790 789 787 786 785 784 784 784 784 783 782 781 780 779 778 778 785 790 790 792 789 787 786 785 794 798 796 800 801 814 819 813 826 826 821 809 808 812 815 812 807 804 801 796 793 791 792 794 798
801 797 793 789 787 785 784 783 783 783 783 782 782 782 783 783 783 781 781 781 781 787 801 800 792 791 790 787 785 784 785 791 795 801 814 819 816 821 822 820 819 813 811 816 816 807 804 801 799 798 797 797 797 801
796 791 787 784 781 780 779 779 779 780 781 781 782 782 782 783 784 784 783 783 782 786 800 802 795 794 792 790 788 787 787 792 800 805 813 816 822 821 824 822 819 811 810 816 816 806 806 804 803 800 801 800 800 801
792 786 782 779 777 776 775 775 776 777 780 780 781 782 782 782 784 784 786 786 784 784 792 804 798 795 795 793 792 792 794 798 804 810 818 821 820 822 822 822 808 809 808 810 808 806 806 804 804 802 802 803 805 804
788 783 779 776 774 773 773 774 775 776 779 780 780 782 782 782 784 785 789 787 785 785 791 804 804 796 795 795 797 798 799 804 808 817 820 821 821 822 826 831 801 803 803 803 804 804 806 805 808 805 804 804 806 807
786 781 779 776 773 772 772 774 775 776 778 779 780 782 782 782 784 785 785 786 786 785 789 805 804 801 795 801 803 803 806 809 814 819 821 820 825 828 826 807 803 802 802 802 801 801 803 805 807 807 806 805 807 809
785 781 778 777 775 774 773 773 776 777 779 779 780 781 782 782 784 784 784 786 786 789 795 802 806 807 797 806 806 807 809 814 819 818 819 822 828 832 806 801 801 801 801 800 802 803 804 805 806 806 806 807 808 808
785 782 780 778 777 777 776 776 776 777 779 780 781 783 783 783 784 784 786 787 787 788 791 796 800 799 799 807 809 811 816 820 828 820 821 822 819 801 796 795 795 796 797 799 802 804 805 806 807 806 807 808 808 807
785 783 781 780 779 779 778 777 778 777 778 780 781 784 783 783 784 786 791 792 795 792 794 793 794 796 796 801 807 813 818 823 820 818 819 825 817 795 785 788 790 792 794 796 797 800 801 802 805 806 807 807 807 808
786 783 782 781 780 779 779 779 778 778 778 780 782 783 783 785 790 789 793 794 793 790 790 790 791 791 796 796 802 813 811 819 812 816 815 823 799 786 785 785 787 789 791 793 796 798 801 802 803 804 805 806 806 807
786 783 781 781 780 779 780 779 779 779 779 781 782 784 787 791 801 792 790 791 791 783 785 787 790 791 796 798 808 807 806 814 814 813 818 802 784 780 780 781 784 786 789 792 794 795 798 800 802 802 803 805 806 806
786 783 782 781 780 779 779 779 779 780 780 783 785 798 790 790 789 784 781 778 773 774 779 782 791 790 797 796 806 799 806 809 808 814 797 784 779 776 776 776 779 783 786 788 791 794 795 799 800 801 801 803 804 804
785 782 781 780 779 779 779 779 780 780 780 782 785 788 784 776 776 774 772 772 769 771 775 781 788 791 797 796 802 802 802 801 800 795 788 780 777 775 774 775 777 780 784 787 790 792 795 797 799 801 802 803 804 804
783 782 780 779 778 777 778 780 780 780 779 781 781 778 774 775 772 770 768 768 766 771 773 778 787 790 789 795 797 795 795 792 782 780 776 776 776 777 775 778 777 779 782 788 791 794 796 799 800 802 802 803 802 802
782 780 780 779 778 778 779 780 780 779 778 776 774 772 771 770 769 765 762 759 762 767 773 778 780 781 790 790 790 786 783 774 771 770 772 771 769 774 774 776 775 777 786 790 792 796 798 800 801 801 802 801 801 800
779 779 780 779 779 779 779 779 779 776 774 770 772 766 766 762 761 760 758 759 762 764 767 768 768 774 774 775 777 769 767 766 763 768 767 767 767 771 773 774 774 782 787 791 793 796 798 800 800 801 800 800 799 798
779 778 778 778 778 778 778 777 777 773 766 763 763 761 760 757 753 751 752 753 754 756 759 762 759 768 765 762 759 761 758 761 759 761 764 764 765 770 772 772 777 783 787 789 792 795 797 798 799 800 799 798 798 798
776 775 775 776 777 777 777 774 772 772 767 758 757 756 754 751 747 746 746 749 753 756 758 758 756 753 753 749 749 751 752 754 756 761 762 764 768 771 770 773 777 781 786 790 791 793 796 797 798 799 799 799 799 799
774 773 774 775 776 776 775 771 769 765 759 757 751 750 746 746 744 744 744 747 752 751 750 748 746 744 744 744 745 747 748 749 752 755 757 761 765 767 769 773 776 780 784 787 789 793 794 795 796 797 798 798 798 798
773 774 774 774 775 775 772 766 765 760 760 753 751 746 744 743 740 739 739 743 744 740 741 741 743 744 745 745 744 744 745 746 748 752 756 759 764 768 771 772 775 778 781 783 785 788 790 792 794 796 797 797 797 797
773 774 774 774 774 774 768 762 761 756 755 749 745 744 741 739 738 738 739 741 741 740 740 740 741 742 742 741 741 743 744 745 749 752 755 758 761 764 767 769 771 774 778 779 782 785 787 790 792 795 796 796 797 797
774 774 772 771 772 770 762 759 757 753 749 747 744 738 735 737 737 736 737 740 741 739 739 739 740 742 742 740 743 744 744 747 749 752 754 757 760 762 764 765 767 769 771 774 778 782 785 788 790 792 794 796 797 797
773 771 772 772 763 760 757 752 750 750 747 742 739 735 735 738 737 737 737 738 738 737 736 736 737 739 740 743 745 746 748 749 749 752 753 755 758 760 761 763 764 766 769 773 776 779 782 786 788 790 793 795 796 796
775 764 767 757 755 757 751 744 743 745 744 738 735 736 736 736 737 738 738 737 737 735 735 734 734 736 739 740 743 746 747 747 748 750 750 750 752 754 758 761 763 763 765 768 771 775 779 782 785 788 791 793 794 795
767 756 756 754 753 752 749 745 745 745 740 736 735 736 736 735 735 736 735 734 734 733 733 733 733 733 735 737 741 744 745 745 746 748 748 748 750 752 753 755 758 758 760 763 767 772 775 779 783 785 787 789 791 792
756 754 753 749 751 749 746 744 740 737 735 736 735 734 734 734 735 734 732 732 733 733 733 734 733 733 735 738 741 742 743 744 745 746 748 748 748 749 751 753 755 757 758 761 766 770 774 777 780 783 785 786 787 789
754 750 750 748 747 745 743 740 734 732 731 733 735 735 733 733 731 730 731 731 732 733 736 737 738 738 739 740 741 743 744 745 746 749 750 752 751 751 751 752 754 756 758 761 765 769 773 776 778 780 782 783 785 786
749 747 748 744 743 739 733 733 732 729 729 731 732 732 732 729 728 728 730 731 731 734 737 738 739 739 741 742 743 745 746 747 747 748 751 752 751 751 751 752 754 755 757 760 764 768 772 775 777 779 780 781 782 784
743 744 743 741 738 733 729 728 729 729 731 732 732 732 731 731 729 728 729 731 732 734 736 738 739 739 740 742 743 745 746 746 747 747 748 748 749 750 752 753 755 756 758 761 764 767 769 772 774 776 777 778 780 781
737 737 737 735 733 729 727 729 731 732 734 733 735 734 733 731 733 730 729 730 733 734 735 736 737 737 737 737 739 740 741 742 743 744 745 746 746 749 751 754 756 758 760 762 764 767 769 771 772 774 775 776 777 778
731 733 732 731 730 729 730 730 733 735 736 737 736 735 731 732 733 729 728 728 729 730 732 733 734 735 735 733 733 736 739 740 741 742 744 745 746 748 750 753 756 758 760 762 764 766 767 769 770 772 773 773 774 775
Wind_Speed
28 27 26 23 22 20 16 15 15 11 10 7 4 6 6 8 9 4 5 11 3 4 4 4 3 3 2 2 2 3 3 4 4 4 2 2 1 2 3 2 2 4 5 2 2 2 3 5 6 1 4 2 4 4
28 25 24 23 21 19 16 14 12 10 8 5 3 3 4 6 7 3 3 7 8 6 4 4 11 9 3 3 5 2 4 3 4 4 1 2 0 1 3 2 2 0 5 4 6 5 4 5 4 4 2 2 1 6
24 25 24 23 20 17 16 15 11 9 6 5 3 2 3 3 7 4 4 6 5 4 4 5 3 10 10 7 1 3 2 3 2 3 4 2 2 3 2 4 1 1 2 2 3 2 2 5 5 6 4 1 5 7
23 24 24 22 20 18 16 14 11 8 6 5 4 2 1 3 4 6 6 6 5 5 4 4 5 4 6 6 7 3 7 6 7 3 3 2 2 2 2 2 2 4 2 3 2 4 1 0 2 3 3 5 11 8
24 23 22 21 17 16 13 11 9 7 8 6 4 2 0 2 2 6 10 11 6 4 4 2 4 4 9 10 15 12 9 4 3 3 3 1 1 2 1 1 2 2 4 4 5 4 3 3 6 2 2 2 7 10
24 22 21 16 13 12 10 8 8 6 8 6 3 2 2 2 2 3 4 2 6 3 4 1 3 1 3 12 17 14 9 4 3 3 2 1 1 2 2 2 4 3 2 4 1 1 0 2 4 4 1 2 4 7
22 21 16 11 9 7 5 6 6 8 8 5 3 3 3 4 3 2 4 1 1 3 3 2 2 3 1 3 4 3 7 3 3 2 2 2 1 2 2 3 4 5 3 4 3 4 2 3 2 5 6 2 5 3
19 15 10 8 4 2 3 6 7 8 6 4 5 4 4 4 4 3 2 1 2 5 4 3 2 3 1 1 1 3 2 3 4 2 1 2 2 2 2 6 3 2 2 2 4 3 3 2 2 1 4 4 2 4
14 10 5 4 5 4 6 7 6 5 4 6 6 5 3 2 1 2 4 1 1 1 3 2 4 4 2 1 1 3 2 3 1 2 1 3 0 3 7 7 5 7 5 4 3 1 3 2 3 3 2 3 4 0
9 6 4 5 4 5 4 4 4 6 6 6 2 1 2 2 3 3 1 2 4 4 3 2 1 2 3 1 1 2 2 1 1 2 2 1 4 5 7 8 6 8 8 6 5 2 3 2 2 1 2 1 1 1
6 3 3 4 4 4 3 5 4 6 4 1 1 1 1 3 2 3 1 2 1 1 1 2 4 3 1 3 3 0 2 0 2 3 2 2 3 5 5 8 8 7 9 8 5 3 4 5 4 3 2 3 2 4
8 2 3 3 3 4 4 6 4 2 2 2 3 2 2 3 3 2 1 1 2 4 2 4 4 3 1 3 3 0 2 1 3 2 1 3 4 6 5 7 7 10 10 7 11 7 7 8 8 5 4 4 4 3
8 4 1 4 2 3 2 3 6 5 5 2 2 2 3 1 3 5 5 3 2 3 4 3 2 3 2 3 3 2 2 4 1 1 3 5 4 4 7 5 6 10 12 7 8 11 9 9 7 10 9 6 5 6
9 4 4 4 4 1 2 1 3 2 1 2 2 3 4 3 4 5 4 4 4 3 4 3 3 2 1 3 2 3 3 3 1 2 5 3 4 6 4 4 5 8 8 8 8 9 7 8 6 7 8 6 7 10
9 6 3 1 4 3 2 2 2 1 1 2 3 3 5 4 3 4 4 2 2 3 4 4 3 3 1 3 1 2 2 4 5 5 4 4 5 5 2 3 5 6 6 6 7 8 8 7 6 4 2 2 4 5
8 4 3 2 3 6 4 2 3 1 0 2 3 2 3 0 3 2 3 4 3 4 3 3 3 3 3 3 3 6 3 6 4 3 3 2 3 1 5 4 7 12 12 12 12 11 9 5 2 0 2 5 7 9
6 1 3 1 1 4 6 4 3 1 2 3 4 3 3 3 4 4 3 2 8 4 3 3 5 7 3 3 3 5 5 4 3 2 3 4 7 6 5 6 11 16 14 14 12 9 6 4 1 1 4 5 6 6
3 1 3 3 2 2 2 3 2 2 4 4 3 3 3 3 2 3 3 3 4 3 4 5 4 5 5 5 4 4 4 3 3 3 4 4 8 13 14 11 15 17 16 14 12 10 7 3 1 1 3 4 4 4
4 6 6 4 2 1 1 3 4 3 5 3 3 2 3 4 4 4 3 4 4 2 4 2 4 4 4 4 4 4 4 4 4 4 4 8 14 11 12 17 15 17 17 16 14 11 8 6 6 4 4 4 3 4
8 9 8 5 4 1 2 3 3 2 3 3 2 2 3 3 3 3 3 4 4 3 2 4 5 4 4 3 3 2 3 4 3 3 2 5 13 12 12 13 14 20 15 10 12 14 10 8 6 5 4 4 6 6
4 3 3 4 3 4 2 2 3 4 3 2 2 2 3 1 3 4 4 4 2 3 4 4 3 1 3 3 5 6 5 6 5 4 4 5 11 15 10 6 15 19 16 15 14 12 11 11 11 7 4 1 1 2
1 4 0 3 1 2 3 6 3 3 1 3 2 3 3 3 3 3 3 2 3 3 3 3 3 2 1 3 2 6 5 9 9 7 11 14 3 3 5 11 16 13 17 18 19 17 15 13 11 8 4 1 1 1
4 2 2 3 2 2 6 2 2 3 2 3 1 2 3 2 1 1 1 1 1 1 2 2 2 4 2 2 3 2 7 13 6 9 13 14 16 17 16 17 18 17 13 19 20 18 15 13 13 11 5 3 4 4
3 2 3 3 5 4 2 2 3 2 2 2 2 3 2 2 2 2 2 1 2 1 1 2 4 2 1 5 3 3 7 9 12 10 16 13 8 10 12 16 19 22 21 17 21 20 16 15 13 10 8 7 6 6
2 3 3 4 3 3 3 3 3 1 3 4 2 3 0 1 1 1 1 2 1 1 1 3 3 2 2 2 1 5 8 14 10 4 10 14 10 4 4 9 13 16 17 15 18 21 19 16 14 12 10 8 7 6
3 4 6 3 2 3 3 2 1 3 3 3 3 1 1 2 1 2 2 2 2 2 2 2 3 3 2 5 4 4 8 8 5 4 5 10 19 15 10 5 4 10 17 20 18 21 20 18 15 14 13 10 8 7
3 4 3 3 2 1 3 2 4 3 4 3 1 1 1 1 2 2 2 2 2 1 2 3 2 5 5 9 10 11 6 6 8 5 4 6 10 12 15 16 14 15 14 19 19 22 20 18 16 16 15 12 10 9
4 2 5 2 3 3 3 2 3 3 2 2 1 1 2 3 2 2 3 2 4 8 9 9 7 3 7 13 12 8 4 6 9 10 10 7 2 7 11 12 12 7 14 19 20 20 18 18 18 16 15 16 13 11
3 2 2 3 3 3 4 4 3 2 2 3 3 2 2 2 2 2 3 7 9 8 6 7 9 12 13 10 7 10 15 18 13 5 4 1 3 2 3 6 8 8 11 19 21 20 19 18 17 16 15 16 14 11
4 4 3 3 3 4 3 4 2 2 1 2 2 1 2 1 2 4 10 10 9 6 3 2 5 7 8 7 6 8 14 13 6 5 4 4 6 7 7 4 2 6 10 17 21 18 17 17 15 14 13 14 15 12
2 3 3 3 3 3 4 1 1 2 2 1 1 2 1 2 1 2 9 9 8 7 5 5 7 6 6 9 8 7 6 17 17 14 12 8 7 12 10 7 5 6 10 14 15 15 15 14 13 11 9 10 10 10
4 6 4 4 3 3 1 2 1 1 2 2 2 2 3 3 3 2 2 11 9 6 8 8 10 10 14 14 12 12 9 8 12 14 10 7 7 15 13 12 12 11 11 11 13 14 14 13 12 12 11 10 10 10
3 3 3 2 2 1 1 3 2 2 2 1 1 1 2 4 3 3 1 7 14 16 14 13 10 8 6 6 12 16 12 11 6 7 6 4 4 12 17 17 16 15 15 14 13 14 14 13 11 12 13 13 13 12
Wind_Direction
320 321 322 323 320 318 314 312 313 306 306 300 315 334 348 8 13 17 35 23 85 98 330 7 31 90 69 72 108 278 38 358 40 65 113 204 162 248 68 256 152 162 129 168 86 96 265 357 320 212 226 202 151 134
320 324 325 319 315 312 309 310 306 296 293 281 283 317 340 7 21 17 42 31 71 91 175 56 60 48 35 196 138 1 166 182 181 92 101 122 202 41 157 226 337 110 180 184 166 211 252 283 246 287 272 38 50 120
325 326 321 318 312 305 302 301 290 286 260 267 251 299 328 18 27 62 50 39 85 80 15 43 1 16 47 18 279 122 281 160 132 158 152 146 129 129 180 251 177 280 127 127 98 265 315 331 323 337 350 124 122 115
324 320 318 314 308 299 294 287 270 275 230 246 227 248 293 25 30 58 65 43 74 101 107 280 359 16 355 34 56 85 135 101 106 82 93 115 138 169 204 222 176 205 122 146 303 279 276 296 2 345 34 96 106 112
320 319 318 314 304 294 286 272 256 246 216 238 213 234 162 73 37 101 80 54 72 121 162 225 319 32 54 70 61 63 96 88 66 63 65 144 125 108 328 89 268 192 171 150 217 225 153 253 320 320 144 147 140 132
322 320 320 315 308 293 276 254 230 218 202 212 199 257 144 124 155 159 31 35 47 100 98 144 301 287 65 64 56 41 42 61 73 103 123 104 121 113 115 209 253 204 195 182 274 179 195 72 39 11 69 187 199 169
326 323 320 321 317 298 257 220 204 182 202 192 194 184 144 127 153 142 169 102 359 122 90 55 327 289 247 33 41 32 42 68 87 95 63 126 17 64 119 203 236 189 184 167 194 145 85 39 27 11 32 355 214 226
330 331 331 335 360 28 149 170 173 191 178 182 157 153 136 140 141 121 84 128 142 105 74 119 265 2 95 20 36 358 59 37 14 135 60 108 17 30 270 240 255 250 318 238 203 142 164 161 161 59 39 56 90 182
338 343 350 18 13 59 107 133 148 162 169 152 144 143 136 120 102 105 133 104 65 160 133 109 147 230 35 53 79 32 53 61 304 96 215 97 294 245 230 220 198 205 186 207 177 60 51 13 341 344 52 76 100 172
349 9 20 8 55 65 83 103 124 135 138 134 146 216 33 73 128 132 130 34 21 346 42 163 119 201 110 50 20 76 23 105 60 265 110 124 256 244 233 215 215 192 194 144 132 215 178 192 211 279 278 327 215 38
338 4 49 68 60 52 59 90 108 128 131 133 78 157 98 118 154 38 75 114 305 296 185 212 177 157 257 129 185 74 157 47 57 264 123 284 279 249 219 198 202 203 192 203 187 152 195 169 176 194 250 266 257 225
332 333 47 65 51 65 92 70 62 90 84 127 123 107 82 53 41 114 206 327 184 221 203 161 201 173 162 109 103 27 110 53 247 147 64 279 253 239 201 212 205 198 193 192 200 211 217 209 190 192 203 219 236 261
320 309 72 8 21 60 92 76 39 61 108 85 68 61 64 319 55 195 191 241 240 198 184 167 120 129 74 63 72 107 117 227 87 81 230 229 246 238 216 205 210 199 197 203 211 215 218 236 219 205 210 221 237 232
322 305 288 320 326 5 54 63 20 45 118 92 126 309 166 212 237 202 192 195 234 149 141 120 100 135 152 84 135 127 221 116 223 225 234 252 248 274 244 183 156 181 183 194 201 205 205 216 221 231 230 232 223 231
319 315 284 267 328 332 337 337 326 278 152 146 121 229 220 228 248 237 229 310 239 138 131 98 67 97 54 108 186 115 167 245 210 227 227 253 294 291 225 181 145 136 144 131 144 134 132 130 117 86 47 328 292 276
317 303 208 316 297 306 278 285 256 202 85 161 223 256 227 186 271 225 224 253 162 140 102 73 120 113 196 151 145 215 194 221 242 212 224 163 66 95 98 145 139 136 121 131 133 128 122 127 119 123 309 304 294 286
308 199 349 358 343 218 204 210 205 182 233 226 249 227 200 262 235 235 215 232 147 121 167 135 166 201 124 172 223 190 209 224 206 186 192 205 145 155 154 147 118 117 141 149 139 141 136 132 130 299 295 302 306 290
245 187 342 330 296 193 208 213 234 242 242 235 213 239 198 225 232 248 228 158 150 182 136 203 142 175 199 189 225 226 209 234 146 191 204 170 139 173 163 157 123 160 167 162 156 144 135 121 66 335 314 331 325 320
243 271 297 307 280 263 213 223 196 243 232 223 241 228 211 244 234 238 203 190 197 156 127 166 224 200 224 205 192 201 168 203 194 180 224 183 161 177 165 147 164 172 175 166 159 151 139 114 105 87 68 57 61 29
266 279 268 245 220 245 264 262 203 232 260 241 216 233 212 213 220 217 194 170 154 162 170 211 217 217 189 203 190 186 191 188 141 156 151 148 179 189 154 164 178 180 172 170 155 150 145 135 136 135 108 96 90 107
279 250 194 191 198 229 255 259 252 218 261 248 239 208 254 230 220 206 208 150 137 207 223 214 213 201 171 177 213 218 222 172 175 167 167 159 177 175 154 162 176 171 173 176 165 180 170 163 163 159 167 169 51 20
239 183 251 199 227 228 258 229 224 275 255 251 293 214 251 252 230 217 136 150 218 224 182 169 174 157 256 250 210 206 228 190 171 150 159 145 130 128 170 184 166 173 196 198 186 190 189 186 179 181 201 191 249 237
167 210 238 204 236 218 265 210 226 223 234 259 297 255 242 251 305 349 96 311 289 258 177 170 178 197 219 9 61 174 174 157 149 159 164 176 190 186 179 184 192 188 199 217 208 205 197 187 191 196 204 230 255 252
196 226 217 211 189 252 252 244 219 257 262 268 243 267 237 202 186 124 309 229 244 248 150 185 161 100 46 69 74 112 112 168 152 158 171 165 167 180 197 204 205 213 221 225 206 204 201 193 188 194 206 217 254 259
213 248 141 269 222 243 235 241 219 201 247 224 241 263 276 63 107 166 210 252 238 240 214 182 170 157 119 115 112 130 147 159 156 167 207 207 204 163 161 196 210 220 218 205 196 197 198 201 196 202 212 221 232 213
200 221 175 219 242 186 236 274 250 225 246 254 252 325 45 88 182 238 233 215 222 231 194 180 177 157 202 191 159 173 194 179 174 178 227 209 203 191 178 170 186 221 216 217 205 193 194 198 203 214 219 220 217 216
241 241 223 231 236 296 286 115 277 261 260 230 231 129 72 190 259 263 262 220 199 231 55 48 135 187 190 187 176 176 169 194 196 212 260 214 204 206 203 192 205 235 212 196 195 197 196 198 206 218 231 233 232 234
249 243 198 214 203 214 244 248 235 232 239 223 100 200 194 197 233 236 207 172 136 99 70 52 43 125 157 164 161 172 167 152 137 132 115 95 138 222 224 241 258 248 205 193 188 197 203 206 212 216 222 228 239 247
235 242 177 256 239 239 218 218 243 238 187 144 168 212 223 221 225 204 192 156 133 114 82 85 84 100 107 116 140 174 159 148 132 99 84 77 358 92 182 223 232 221 207 197 195 203 206 209 214 222 228 230 239 250
244 178 199 242 214 232 252 180 241 225 108 175 154 14 338 285 227 179 164 163 152 145 139 136 166 151 137 127 120 165 187 188 189 161 159 197 214 172 157 151 199 206 200 196 198 204 213 218 225 232 239 239 236 236
182 160 211 217 244 253 249 189 44 53 62 39 46 172 207 299 324 193 202 204 183 169 177 189 189 196 188 180 179 181 222 221 236 251 260 271 223 191 177 164 162 176 182 192 196 201 206 208 214 213 208 212 222 242
186 199 188 199 249 280 96 124 130 85 20 56 0 17 3 36 348 294 209 203 192 200 225 223 215 229 229 234 228 222 230 232 229 234 245 257 215 197 186 171 168 171 172 177 185 188 191 196 205 214 229 231 226 234
148 164 187 250 245 185 7 99 58 44 30 12 316 212 195 192 220 257 248 224 229 227 227 220 230 257 269 264 239 229 236 257 255 212 234 243 199 194 198 192 191 197 201 201 202 207 213 221 229 228 228 235 242 241